Simultaneous Nadir Overpasses (SNOs) Predictions

Prediction of SNOs between NOAA-19 and METOP-C Satellite Orbit:

Table of predicted SNOs for the next 14.0 days since TLE Epoch: 4/17/2021
Index Date (NOAA-19) Time (NOAA-19) Lat,Lon (NOAA-19) SZA (NOAA-19 ) Date (METOP-C) Time (METOP-C) Lat,Lon (METOP-C) SZA (METOP-C ) Distance(km) Time Diff (sec)
1 04/22/2021 14:33:44 80.53, -12.18 69.13 04/22/2021 14:34:56 80.47, -10.82 69.21 25.89 72
2 04/22/2021 15:24:42 -80.47, 156.47 110.83 04/22/2021 15:25:36 -80.48, 156.58 110.80 2.16 54
3 04/22/2021 16:15:40 80.46, -36.17 69.17 04/22/2021 16:16:18 80.46, -36.30 69.16 2.50 38
4 04/22/2021 17:06:42 -80.46, 131.10 110.85 04/22/2021 17:06:58 -80.47, 131.10 110.84 0.42 16
5 04/22/2021 17:57:40 80.46, -61.53 69.15 04/22/2021 17:57:39 80.47, -61.45 69.17 2.51 1
6 04/22/2021 18:48:42 -80.46, 105.73 110.87 04/22/2021 18:48:20 -80.46, 105.63 110.88 1.94 22
7 04/22/2021 19:39:40 80.45, -86.89 69.13 04/22/2021 19:39:01 80.46, -86.93 69.13 1.74 39
8 04/22/2021 20:30:42 -80.45, 80.37 110.89 04/22/2021 20:29:41 -80.47, 80.48 110.88 3.12 61



Historial Predications of SNOs between NOAA-19 and METOP-C
